Weather in Limeira

Brazil     22°33′30″S   47°23′55″W
temp.,
°C
wind,
m/s
gust,
m/s
humid.,
%
clouds,
%
prec.,
mm/h
press.,
hPa
HPBL,
m
7 march, sun
sun700:00+19nne229782 1.4 101345
03:00+19n119691 1.7 101223
06:00+18wnw1198100 1.6 101223
09:00+22nnw2390100 2.9 1014276
12:00+25wnw3477100 3.1 1013915
15:00+25wnw2380100 6.7 1011802
18:00+23ne118995 4.6 101023
21:00+20nne019166 5.7 101323
8 march, mon
mon800:00+19ene1194100 0.0 101323
03:00+18ne119696 0.1 101223
06:00+18ne0198100 0.8 101323
09:00+22n1288100 0.8 1014383
12:00+25wnw228277 2.9 1013659
15:00+25w127948 6.4 1010774
18:00+24sse018310 0.6 101024
21:00+20s11925 2.7 101323
9 march, tue
tue900:00+19nne11940 0.0 101223
03:00+18nne01960 0.0 101123
06:00+18ne00970 0.0 101123
09:00+23nnw11854 0.0 1012426
12:00+28wnw126332 0.1 10111237
15:00+27w236838 1.1 10081132
18:00+24w11836 1.4 100824
21:00+20ssw11913 2.6 101023
10 march, wed
wed1000:00+20nne119340 0.3 101023
03:00+19nne119464 0.3 100923
06:00+18nne01950 0.0 101023
09:00+24nnw12840 0.8 1011287
12:00+29wsw11610 0.8 10101318
15:00+28w116519 2.2 10081143
18:00+24se018211 2.1 100823
21:00+20sse119014 3.6 101123
11 march, thu
thu1100:00+19ese129427 0.0 101123
03:00+18s019641 0.0 101023
06:00+17nne119738 0.0 101123
09:00+23n128319 0.0 1013408
12:00+27wnw127024 0.8 10121009
15:00+26w226723 2.0 10101034
18:00+24ene11792 0.3 101024
21:00+21sse11882 1.2 101323